Home   Weather   Kolkata   Past weeks

Flag for India Past Weather in Kolkata, West Bengal, India — Yesterday and Last 2 Weeks

Now
91 °F

Scattered clouds.


Feels Like: 111 °F
Forecast: 84 / 92 °F
Wind: 12 mph from Southwest

Location: Calcutta / Dum Dum

Current Time: Sep 1, 2016 at 11:08:09 AM

Latest Report: Sep 1, 2016 at 10:30 AM


Visibility: 3 mi

Pressure: 29.65 "Hg

Humidity: 71%

Dew Point: 81 °F

Location of KolkataLocation

Past Weather in Kolkata — Graph

°F

Kolkata Temperature Yesterday

Maximum temperature yesterday: 91 °F (at 10:30 AM)
Minimum temperature yesterday: 81 °F (at 11:30 AM)
Average temperature yesterday: 84 °F

High & Low Weather Summary for the Past Weeks

 TemperatureHumidityPressure
High95 °F (Aug 20, 2:00 PM)100% (Aug 17, 8:00 PM)29.80 "Hg (Aug 17, 8:00 PM)
Low75 °F (Aug 22, 4:30 AM)53% (Aug 27, 1:00 PM)29.15 "Hg (Aug 17, 7:30 PM)
Average86 °F83%29.60 "Hg
* Reported Aug 17 9:30 AM — Sep 1 10:00 AM, Kolkata, Weather by CustomWeather, © 2016

Note: Actual official high and low records may vary slightly from our data, if they occured in-between our weather recording intervals... More about our weather records

Advertising

Kolkata Weather History for the Previous 24 Hours

Scroll right to see more
 ConditionsComfort  
Time TempWeatherWind HumidityBarometerVisibility
10:00 AM
Thu, Sep 1
90 °FScattered clouds.12 mph75%29.68 "Hg3 mi
9:30 AM90 °FScattered clouds.9 mph75%29.68 "Hg2 mi
9:00 AM88 °FScattered clouds.8 mph84%29.68 "Hg2 mi
8:30 AM88 °FScattered clouds.9 mph84%29.68 "Hg2 mi
8:00 AM86 °FScattered clouds.9 mph89%29.68 "Hg2 mi
7:30 AM82 °FPartly sunny.6 mph89%29.65 "Hg2 mi
7:00 AM82 °FPartly sunny.3 mph89%29.65 "Hg2 mi
6:30 AM82 °FPartly sunny.3 mph89%29.65 "Hg2 mi
6:00 AM81 °FPartly sunny.3 mph94%29.62 "Hg2 mi
5:30 AM81 °FPassing clouds.3 mph94%29.62 "Hg2 mi
5:00 AM81 °FPassing clouds.No wind94%29.59 "Hg2 mi
4:30 AM81 °FPassing clouds.3 mph94%29.59 "Hg2 mi
4:00 AM81 °FPassing clouds.3 mph94%29.59 "Hg2 mi
3:30 AM81 °FPassing clouds.No wind94%29.59 "Hg2 mi
3:00 AM82 °FPassing clouds.3 mph89%29.59 "Hg2 mi
2:30 AM82 °FPassing clouds.5 mph89%29.62 "Hg2 mi
2:00 AM82 °FPassing clouds.No wind89%29.62 "Hg2 mi
1:30 AM82 °FHaze.6 mph89%29.62 "Hg2 mi
1:00 AM82 °FHaze.5 mph89%29.65 "Hg2 mi
12:30 AM82 °FHaze.6 mph89%29.65 "Hg2 mi
12:00 AM82 °FHaze.5 mph89%29.65 "Hg2 mi
11:30 PM
Wed, Aug 31
82 °FHaze.6 mph89%29.68 "Hg2 mi
11:00 PM82 °FHaze.7 mph89%29.68 "Hg2 mi
10:30 PM82 °FHaze.6 mph89%29.68 "Hg2 mi
10:00 PM82 °FHaze.7 mph89%29.68 "Hg2 mi
9:30 PM82 °FHaze.6 mph89%29.68 "Hg2 mi
9:00 PM82 °FPassing clouds.6 mph89%29.68 "Hg2 mi
8:30 PM82 °FPassing clouds.5 mph89%29.68 "Hg2 mi
8:00 PM84 °FPassing clouds.6 mph89%29.65 "Hg2 mi
7:30 PM84 °FPassing clouds.7 mph89%29.65 "Hg2 mi
7:00 PM84 °FPassing clouds.7 mph89%29.62 "Hg2 mi
6:30 PM84 °FPassing clouds.6 mph89%29.62 "Hg2 mi
6:00 PM84 °FScattered clouds.7 mph89%29.62 "Hg2 mi
5:30 PM84 °FScattered clouds.7 mph89%29.59 "Hg2 mi
5:00 PM84 °FScattered clouds.6 mph89%29.59 "Hg2 mi
4:30 PM84 °FScattered clouds.7 mph89%29.59 "Hg2 mi
4:00 PM86 °FScattered clouds.8 mph84%29.59 "Hg2 mi
3:30 PM84 °FBroken clouds.8 mph89%29.59 "Hg2 mi
3:00 PM84 °FBroken clouds.7 mph89%29.59 "Hg2 mi
2:30 PM84 °FBroken clouds.7 mph89%29.62 "Hg2 mi
2:00 PM84 °FLight rain. Broken clouds.10 mph89%29.65 "Hg2 mi
1:30 PM82 °FLight rain. Broken clouds.6 mph89%29.65 "Hg2 mi
1:00 PM81 °FThunderstorms. More clouds than sun.5 mph94%29.65 "Hg2 mi
12:30 PM81 °FThunderstorms. More clouds than sun.6 mph100%29.68 "Hg1 mi
12:00 PM81 °FThunderstorms. More clouds than sun.7 mph100%29.68 "Hg1 mi
11:30 AM81 °FThunderstorms. More clouds than sun.14 mph94%29.68 "Hg1 mi
11:00 AM90 °FLight rain. Broken clouds.9 mph75%29.68 "Hg2 mi
Weather by CustomWeather, © 2016

See weather overviewHow to use our weather pages